Flag for United Kingdom Weather past 2 weeks in Nottingham, England, United Kingdom

Now
64 °F

Partly sunny.


Feels Like: 64 °F
Forecast: 55 / 74 °F
Wind: 13 mph from West

Location: East Midlands

Current Time: Jul 30, 2014 at 12:39:23 PM

Latest Report: Jul 30, 2014 at 12:20 PM


Visibility: N/A

Pressure: 30.01 "Hg

Humidity: 68%

Dew point: 54 °F

Location of NottinghamLocation

Historic Weather in Nottingham — Graph

°F

Nottingham temperature yesterday

Maximum temperature yesterday: 73 °F (at 11:50 AM)
Minimum temperature yesterday: 55 °F (at 3:50 AM)
Average temperature yesterday: 63 °F

Past Weeks' High & Low Weather Summary

 TemperatureHumidityPressure
High82 °F (Jul 18, 4:50 PM)100% (Jul 19, 5:20 AM)30.27 "Hg (Jul 19, 5:20 AM)
Low52 °F (Jul 28, 4:20 AM)37% (Jul 26, 3:20 PM)29.74 "Hg (Jul 19, 4:20 PM)
Average66 °F74%30.04 "Hg
* Reported Jul 15 11:20 AM — Jul 30 11:20 AM, Nottingham, Weather by CustomWeather, © 2014

Note: Actual official high and low records may vary slightly from our data, if they occured in-between our weather recording intervals... More about our weather records

Advertising

Nottingham weather history for previous 24 hours

 ConditionsComfort  
Time TempWeatherWind HumidityBarometerVisibility
11:20 AM
Jul 30
63 °FPartly sunny.10 mph73%30.01 "HgN/A
10:50 AM63 °FPartly sunny.14 mph73%30.01 "HgN/A
10:20 AM63 °FPartly sunny.10 mph73%30.01 "HgN/A
9:50 AM61 °FPartly sunny.7 mph72%30.01 "HgN/A
8:50 AM61 °FScattered clouds.10 mph72%30.01 "HgN/A
8:20 AM61 °FScattered clouds.13 mph72%30.01 "HgN/A
7:50 AM61 °FPassing clouds.13 mph77%30.01 "HgN/A
7:20 AM59 °FScattered clouds.10 mph77%29.98 "HgN/A
5:50 AM57 °FPassing clouds.10 mph88%29.98 "HgN/A
5:20 AM57 °FPassing clouds.12 mph88%29.98 "HgN/A
4:50 AM59 °FPassing clouds.8 mph88%29.98 "HgN/A
4:20 AM59 °FPassing clouds.6 mph88%29.98 "HgN/A
3:50 AM57 °FPassing clouds.6 mph88%30.01 "HgN/A
3:20 AM57 °FPassing clouds.7 mph88%30.01 "HgN/A
2:50 AM57 °FPassing clouds.7 mph88%30.01 "HgN/A
2:20 AM57 °FPassing clouds.7 mph82%30.01 "HgN/A
1:50 AM55 °FPassing clouds.9 mph88%30.01 "HgN/A
1:20 AM55 °FPassing clouds.8 mph88%30.01 "HgN/A
12:50 AM55 °FClear.6 mph88%30.01 "Hg10 mi
12:20 AM55 °FPassing clouds.8 mph88%30.01 "HgN/A
11:50 PM
Jul 29
57 °FPassing clouds.8 mph88%30.04 "HgN/A
11:20 PM59 °FPassing clouds.9 mph82%30.04 "HgN/A
10:50 PM59 °FPassing clouds.8 mph82%30.04 "HgN/A
10:20 PM59 °FPassing clouds.7 mph82%30.01 "HgN/A
9:50 PM61 °FSunny.8 mph72%30.01 "Hg10 mi
9:20 PM61 °FPassing clouds.10 mph72%30.01 "HgN/A
8:50 PM63 °FPassing clouds.12 mph68%30.01 "HgN/A
8:20 PM64 °FPassing clouds.10 mph64%30.01 "HgN/A
7:50 PM66 °FScattered clouds.13 mph64%30.01 "HgN/A
7:20 PM66 °FBroken clouds.12 mph73%29.98 "HgN/A
6:50 PM68 °FBroken clouds.12 mph69%29.98 "HgN/A
6:20 PM66 °FPartly sunny.12 mph73%29.98 "HgN/A
5:50 PM68 °FPartly sunny.12 mph69%30.01 "HgN/A
5:20 PM70 °FPartly sunny.13 mph64%30.01 "HgN/A
4:50 PM68 °FPartly sunny.14 mph69%30.01 "HgN/A
4:20 PM70 °FScattered clouds.15 mph64%30.01 "HgN/A
3:20 PM73 °FScattered clouds.10 mph53%30.01 "HgN/A
2:20 PM73 °FScattered clouds.12 mph53%30.01 "HgN/A
1:50 PM72 °FScattered clouds.13 mph57%30.01 "HgN/A
1:20 PM73 °FScattered clouds.10 mph53%30.01 "HgN/A
12:50 PM73 °FScattered clouds.10 mph53%30.01 "HgN/A
12:20 PM72 °FPassing clouds.10 mph57%30.01 "HgN/A
Weather by CustomWeather, © 2014

See weather overviewHow to use our weather pages